Regional Weather Roundup
Issued by NWS

Home | Current Version | Previous Version | Text Only | Print | Product List | Glossary On
Versions: 1 2 3 4 5 6 7 8 9 10 11 12 13 14 15 16 17 18 19 20 21 22 23 24 25 26 27 28 29 30 31 32 33 34 35 36 37 38 39 40 41 42 43 44 45 46 47 48 49 50
122
ASUS42 KTBW 231517
RWRFL
FLORIDA REGIONAL WEATHER ROUNDUP
NATIONAL WEATHER SERVICE TAMPA BAY RUSKIN FL
1100 AM EDT TUE MAY 23 2017

NOTE: "FAIR" INDICATES FEW OR NO CLOUDS BELOW 12,000 FEET WITH NO
SIGNIFICANT WEATHER AND/OR OBSTRUCTIONS TO VISIBILITY.

FLZ001>010-012>015-112-114-115-231600-
PANHANDLE FLORIDA

CITY           SKY/WX    TMP DP  RH WIND       PRES   REMARKS
PENSACOLA      PTSUNNY   82  70  66 SW18G32   29.78S
PENSACOLA NAS  CLOUDY    80  69  69 SW22G32   29.78S
MILTON NAS     CLOUDY    80  74  81 SW17G25   29.78
CRESTVIEW      CLOUDY    80  69  69 SW15G25   29.80S
DUKE FIELD     MOSUNNY   79  71  77 SW16G22   29.78S
VALPARAISO     PTSUNNY   82  71  68 SW16G23   29.79F
MARY ESTHER    PTSUNNY   81  69  65 SW13G22   29.79R
PANAMA CITY    PTSUNNY   80  74  81 S18G31    29.79F
TYNDALL AFB    PTSUNNY   81  75  81 S15       29.82S
APALACHICOLA   CLOUDY    81  78  91 S16       29.83F

STATION/POSITION SKY/WX   TEMP    WIND        PRES    WAVE   SWELL
                          AIR SEA DIR/SP/G            HT/PER HT/PER
                          (F)     (DEG/KT/KT) (MB)    (FT/S) (FT/S)
30.1N   87.6W              78 79  220/ 21/ 25 1007.9F   6/ 6
29.2N   88.2W              78 78  240/ 17/ 23 1009.4
28.8N   86.0W              78 77  190/ 17/ 21 1009.4F   3/ 4
PANAMA CITY BEAC           79 80  200/ 20/ 23 1009.8F
TOWER C                    77     190/ 18/ 19 1010.9S
28.5N   84.5W              78 79  180/ 17/ 19 1010.9F   3/ 4   2/ 8

$$
FLZ011-016>038-118-127-128-134-139-239-231600-
NORTH FLORIDA

CITY           SKY/WX    TMP DP  RH WIND       PRES   REMARKS
MARIANNA       PTSUNNY   79  75  87 S15G24    29.79F
TALLAHASSEE    CLOUDY    78  75  90 S7        29.84F
PERRY          CLOUDY    81  74  78 S12       29.87F
CROSS CITY     CLOUDY    81  73  78 S14       29.88F
LAKE CITY      CLOUDY    81  72  74 SW9G17    29.89F
GAINESVILLE    CLOUDY    81  70  69 S13G21    29.90F
WILLISTON      MOSUNNY   86  70  58 S14G21    29.90F
PALATKA        PTSUNNY   82  73  74 SW12G17   29.91F
MAYPORT NAS    CLOUDY    81  73  76 SW10      29.89F
JACKSONVILLE   CLOUDY    81  72  74 SW14      29.88F
JAX NAS        CLOUDY    81  72  74 S12G17    29.90F
FERNANDINA BEA FAIR      82  72  69 SW13      29.87F
ST AUGUSTINE   CLOUDY    82  72  71 SW10      29.91F
PALM COAST     PTSUNNY   80  73  77 SW14      29.93S

STATION/POSITION SKY/WX   TEMP    WIND        PRES    WAVE   SWELL
                          AIR SEA DIR/SP/G            HT/PER HT/PER
                          (F)     (DEG/KT/KT) (MB)    (FT/S) (FT/S)
SHELL POINT      NOT AVBL
KEATON BEACH               79     200/ 20/ 22 1011.1F
CEDAR KEY                  80     210/ 18/ 23 1013.1R
FERNANDINA                 81 80  180/  6/ 13 1012.6F
30.7N   81.3W                 79                N/A     2/ 5
MAYPORT                    79 80  240/ 11/ 13 1012.5F
31.4N   80.9W              77 78  210/ 17/ 19 1011.2F   4/ 6   2/ 7
ST AUGUSTINE               81 78  220/ 16/ 18 1013.5F

$$
FLZ040-043>046-052-053-057-058-063-144-231600-
INTERIOR CENTRAL FLORIDA

CITY           SKY/WX    TMP DP  RH WIND       PRES   REMARKS
OCALA          CLOUDY    84  72  67 S18       29.92F
THE VILLAGES     N/A     84  75  74 MISG      29.83F
LEESBURG       MOSUNNY   83  73  72 S13       29.94F
SANFORD        MOSUNNY   84  71  65 SW16      29.93F
ORLANDO EXEC   PTSUNNY   83  73  72 SW15      29.94F
ORLANDO INTL   PTSUNNY   81  73  76 S13       29.95S
KISSIMMEE      CLOUDY    82  73  74 SW13G18   29.96F
WINTER HAVEN   PTSUNNY   82  72  71 S12       29.96F
LAKELAND       PTSUNNY   82  72  69 S13       29.95F
OKEECHOBEE     CLOUDY    81  72  74 S13       29.99S

$$
FLZ041-047-054-059-064-141-147-231600-
EAST CENTRAL FLORIDA

CITY           SKY/WX    TMP DP  RH WIND       PRES   REMARKS
ORMOND BEACH   MOSUNNY   81  73  78 S12       29.93F
DAYTONA BEACH  PTSUNNY   81  74  79 S14G21    29.93F
DELAND         PTSUNNY   82  72  69 S13G22    29.92F
NEW SMYRNA BEA PTSUNNY   82  73  74 SW9       29.95F
JFK SPACE CTR  PTSUNNY   84  72  66 SW15      29.93F
TITUSVILLE     MOSUNNY   88  70  55 S12       29.95F
CAPE CANAVERAL PTSUNNY   85  67  54 SW17      29.93F
PATRICK AFB    PTSUNNY   86  66  51 SW16      29.94F
MELBOURNE      CLOUDY    86  67  52 S14       29.95F
VERO BEACH     MOSUNNY   84  69  60 S15       29.97F
FT PIERCE      MOSUNNY   84  71  65 S12       29.97F
STUART         MOSUNNY   86  70  58 S10       29.99S

STATION/POSITION SKY/WX   TEMP    WIND        PRES    WAVE   SWELL
                          AIR SEA DIR/SP/G            HT/PER HT/PER
                          (F)     (DEG/KT/KT) (MB)    (FT/S) (FT/S)
28.5N   80.2W              78 78  190/ 14/ 16 1015.5F   3/ 5   2/ 9
28.9N   78.5W              79 79  190/ 14/ 17 1015.0F   4/ 5   2/ 8
TRIDENT PIER               81 82  190/ 12/ 15 1015.6F
28.4N   80.5W                 80                N/A     2/ 4
27.5N   80.2W                 77                N/A     2/10

$$
FLZ050-056-061-142-242-148-248-149-249-151-251-155-255-
160-260-231600-
WEST CENTRAL FLORIDA

CITY           SKY/WX    TMP DP  RH WIND       PRES   REMARKS
CRYSTAL RIVER  PTSUNNY   82  70  65 SW8G24    29.92F
INVERNESS        N/A    N/A N/A N/A S12       29.93S
BROOKSVILLE    PTSUNNY   81  74  79 S8        29.94F
CLEARWATER AIR CLOUDY    82  72  69 S13       29.93S
ST PETE CLEARW CLOUDY    84  71  65 S21       29.93F
TAMPA INTL     CLOUDY    84  73  69 S14       29.94S
TAMPA EXEC     CLOUDY    84  73  70 S12G17    29.95S
PLANT CITY     CLOUDY    84  73  70 S12G21    29.96F
MACDILL AFB    CLOUDY    84  75  74 S17       29.93F
PETER O KNIGHT CLOUDY    86  77  74 S12       29.94F HX  97
ST PETERSBURG  CLOUDY    80  73  79 SW18      29.92S
SARASOTA       PTSUNNY   84  72  67 S17G23    29.93S
VENICE         FAIR      82  75  78 S13G18    29.96S

STATION/POSITION SKY/WX   TEMP    WIND        PRES    WAVE   SWELL
                          AIR SEA DIR/SP/G            HT/PER HT/PER
                          (F)     (DEG/KT/KT) (MB)    (FT/S) (FT/S)
27.3N   84.2W                 78                N/A     3/ 5
CLEARWATER BEACH           81 83  180/ 20/ 23 1013.5F
MIDDLE TAMPA BAY           81     210/ 16/ 20 1014.1S
VENICE                     81 84  190/ 17/ 18 1014.0R

$$
FLZ066-069-070-075>078-162-262-165-265-231600-
SOUTHWEST FLORIDA AND KEYS

CITY           SKY/WX    TMP DP  RH WIND       PRES   REMARKS
PUNTA GORDA    CLOUDY    86  71  60 S16       29.97F
FT MYERS       PTSUNNY   85  73  67 S9        29.95F
SOUTHWEST INTL CLOUDY    85  71  63 S15       29.96F
NAPLES         MOSUNNY   86  73  65 S14       29.97S
MARCO ISLAND   CLOUDY    84  72  65 S13       29.98S
IMMOKALEE      FAIR      84  73  70 S8G15     29.99S
MARATHON       SUNNY     86  76  71 SE9G16    29.98F HX  96
KEY WEST NAS   PTSUNNY   85  73  67 S17       29.98F
KEY WEST INTL  SUNNY     84  73  69 S16       29.98F

STATION/POSITION SKY/WX   TEMP    WIND        PRES    WAVE   SWELL
                          AIR SEA DIR/SP/G            HT/PER HT/PER
                          (F)     (DEG/KT/KT) (MB)    (FT/S) (FT/S)
NAPLES                        83  180/ 16/ 18 1015.0R
DRY TORTUGAS               81     160/ 11/ 12 1015.2R
SAND KEY                   81     170/ 17/ 19 1015.6F
LONG KEY                   81 82  170/ 13/ 14 1015.7R
MOLASSES REEF              81 81  180/ 13/ 14 1016.2R

$$
FLZ067-068-071>074-168-172>174-231600-
SOUTHEAST FLORIDA

CITY           SKY/WX    TMP DP  RH WIND       PRES   REMARKS
W PALM BEACH   CLOUDY    85  66  53 SW12      29.99S
FT LAUDER-EXEC PTSUNNY   88  67  49 S9        29.98F
FT LAUDERDALE  CLOUDY    86  69  56 S12G21    29.97F
POMPANO BEACH  MOSUNNY   84  71  65 S13       29.98F
PEMBROKE PINES MOSUNNY   87  69  54 S13       30.00S
OPA LOCKA      MOSUNNY   87  71  58 S13G21    29.99F
MIAMI          PTSUNNY   86  68  54 SE14G22   29.99F
WEST KENDALL   MOSUNNY   87  68  52 S9        29.99S
HOMESTEAD      MOSUNNY   85  72  65 S13       29.99S

STATION/POSITION SKY/WX   TEMP    WIND        PRES    WAVE   SWELL
                          AIR SEA DIR/SP/G            HT/PER HT/PER
                          (F)     (DEG/KT/KT) (MB)    (FT/S) (FT/S)
PORT EVERGLADES            83     160/ 12/ 16 1015.7F
VIRGINIA KEY               81 83  150/ 12/ 14 1015.2F
LAKE WORTH                 80 81              1016.4F
FOWEY ROCKS                82 81  170/ 14/ 15 1016.7R
SETTLEMENT POINT           81     180/ 13/ 14 1015.9F

$$





USA.gov is the U.S. government's official web portal to all federal, state and local government web resources and services.